Theta_e
301 301 302 301 302 302 301 301 301 301 300 300 299 299 298 297 297 296 296 295 294 294 294 294 294 294 293 293 293 292 291 290 286 288 290 291 290 289 289 290 291 292 292
299 300 301 301 301 301 301 301 301 300 301 300 300 299 298 297 297 295 294 295 294 294 294 292 292 292 291 292 292 290 290 290 288 284 286 287 287 288 288 289 290 291 290
296 297 299 299 300 300 300 300 301 300 300 300 299 299 298 297 295 295 295 295 294 294 294 292 291 291 290 291 290 289 289 288 288 285 283 285 286 287 287 289 288 288 288
293 295 296 298 298 299 299 300 300 300 299 299 299 298 298 297 296 295 295 294 294 293 293 292 291 291 290 290 289 288 288 286 286 284 284 283 284 286 287 285 283 284 283
290 291 293 295 297 298 298 298 299 299 298 298 298 297 297 296 295 294 293 293 293 292 291 291 291 290 289 290 289 288 287 285 285 283 283 283 284 284 282 283 280 281 281
286 286 288 290 293 294 296 296 297 296 297 297 296 295 295 294 293 293 293 292 292 290 289 288 289 286 286 287 286 286 286 284 283 282 282 282 282 282 283 280 279 277 275
281 282 283 285 286 287 290 293 293 294 295 294 292 292 290 293 293 293 291 291 290 289 288 287 287 286 285 285 285 285 285 285 285 284 282 282 281 282 280 278 277 276 275
277 278 280 281 282 285 285 287 289 291 288 286 286 286 287 288 292 292 290 289 288 287 287 287 286 285 285 283 282 281 281 283 284 284 284 283 282 282 280 278 277 277 277
273 274 276 279 280 282 283 284 285 285 285 286 286 286 287 287 291 291 290 288 287 286 286 286 286 285 286 285 281 279 280 283 286 286 285 284 283 280 279 275 274 273 273
271 272 275 277 278 281 282 283 285 284 284 285 285 286 286 287 290 291 290 288 286 286 285 285 284 285 286 286 281 281 280 282 284 283 282 282 279 277 277 276 275 272 272
270 271 273 275 277 279 280 284 285 285 284 285 285 286 286 286 287 290 291 287 287 286 285 284 284 286 286 286 285 282 283 284 283 282 281 280 280 279 278 277 275 273 271
268 269 270 272 275 277 279 282 284 285 285 285 285 285 286 286 286 289 291 291 289 287 286 286 285 286 286 286 285 284 286 285 283 279 279 279 277 277 277 277 272 271 273
267 268 269 271 273 275 276 279 281 284 284 285 285 285 285 286 286 288 289 291 290 287 287 287 287 287 287 286 286 285 283 281 280 278 278 277 276 274 272 275 273 271 273
265 266 268 269 270 272 275 278 278 280 281 283 284 284 285 286 285 285 286 288 288 288 287 287 286 286 286 285 283 284 280 281 278 278 278 277 275 274 274 273 273 272 274
264 266 268 268 269 270 273 275 275 278 280 280 282 284 284 284 286 286 286 286 288 287 285 284 282 282 281 279 279 279 279 277 275 278 276 275 274 274 273 273 273 273 272
262 264 265 266 267 269 270 272 275 277 278 279 282 284 285 287 288 288 287 288 289 288 284 282 281 280 280 279 277 277 277 277 277 278 276 275 274 273 273 273 274 272 270
260 262 263 264 265 267 269 269 269 272 275 278 280 283 285 287 288 288 288 287 288 288 283 282 282 281 280 279 278 278 277 277 278 277 276 275 274 274 272 273 273 272 271
259 259 261 263 264 266 267 268 269 267 268 270 276 280 283 285 286 288 288 288 284 286 284 284 283 281 281 280 279 279 278 277 277 276 276 275 274 274 274 273 272 271 270
258 259 260 261 262 263 264 265 266 267 268 269 272 276 281 285 286 287 288 285 284 283 284 284 284 283 282 282 281 280 280 277 276 276 276 275 275 275 275 273 271 270 269
256 257 257 258 259 261 262 264 265 265 266 268 270 272 277 278 280 284 285 285 285 284 284 284 284 284 283 283 282 280 279 277 276 276 276 275 275 276 274 272 270 270 270
255 256 257 258 258 259 260 262 263 264 264 265 268 271 275 274 275 277 282 285 285 285 285 285 284 284 284 283 282 280 279 277 277 277 276 275 275 274 274 273 272 271 270
255 255 256 256 258 258 259 260 261 262 263 264 266 268 272 271 272 275 279 284 285 286 286 286 285 285 284 283 282 281 279 278 277 277 276 275 275 275 274 272 271 271 270
255 255 255 256 257 257 257 258 258 259 261 262 264 265 267 269 272 274 277 281 285 285 286 286 285 285 284 284 283 282 280 279 278 278 276 274 274 274 273 271 270 269 269
254 255 255 255 255 256 256 257 258 259 260 261 262 264 266 268 270 273 274 277 281 285 285 285 285 285 284 283 282 282 282 282 280 278 277 275 274 273 272 271 270 269 269
254 253 253 254 254 254 255 255 256 257 258 259 260 262 264 267 268 269 270 272 275 281 284 285 285 285 285 282 282 281 282 281 279 278 277 276 274 273 272 271 270 269 269
254 253 253 254 253 254 254 254 255 256 257 258 259 261 263 265 266 267 269 271 273 275 281 285 285 285 285 282 281 281 280 279 278 277 277 276 273 273 271 270 269 269 269
Wind_Speed
8 9 11 12 13 13 12 14 14 14 15 16 16 16 15 15 14 12 11 11 11 10 8 9 9 7 5 5 5 4 5 6 7 5 4 5 9 11 11 12 13 13 11
5 8 9 10 11 12 12 13 13 15 15 16 16 15 15 14 14 13 13 12 12 12 11 10 9 7 8 7 5 6 6 6 6 11 7 7 8 11 13 14 11 11 12
5 5 6 8 9 11 10 11 12 13 13 14 15 16 15 15 15 14 13 12 12 12 11 11 10 9 8 6 6 5 5 5 5 6 8 6 7 9 10 10 11 12 11
7 3 3 6 7 8 9 10 11 12 13 14 15 15 16 15 15 14 13 12 11 11 10 10 10 10 9 8 6 6 5 5 4 6 7 7 7 8 7 9 9 10 12
13 12 10 5 4 6 7 8 8 10 11 12 12 13 13 14 12 15 13 13 12 11 9 9 8 7 9 8 5 6 5 4 4 5 6 7 8 9 10 7 11 11 12
13 13 12 12 8 5 3 4 7 7 8 9 10 12 13 10 15 20 17 12 12 12 11 9 8 7 7 10 11 9 6 4 5 5 5 7 9 10 6 8 10 11 9
14 14 14 13 11 9 9 5 3 6 7 8 8 9 10 11 17 21 19 11 11 10 10 9 7 6 8 8 12 11 11 12 12 7 8 7 9 6 7 8 10 11 10
15 14 14 13 12 10 8 7 5 2 1 2 2 2 4 5 15 21 20 8 8 9 10 11 11 9 9 8 6 5 5 6 7 5 6 6 7 6 5 7 9 10 10
16 16 14 14 13 12 11 9 6 3 3 3 2 5 7 4 11 17 17 9 8 9 9 9 10 9 13 16 7 6 5 5 6 8 9 9 9 6 5 4 5 7 7
16 15 14 12 13 12 12 11 8 5 4 4 6 6 6 7 14 19 18 7 9 7 7 8 13 11 17 18 9 7 6 4 3 3 4 5 4 2 2 2 4 5 5
13 13 13 13 13 11 11 10 10 7 6 5 5 6 6 7 8 20 23 10 9 8 8 9 8 19 18 19 16 8 6 4 4 3 3 4 3 3 2 0 1 3 4
12 12 13 12 11 11 11 10 10 7 5 5 6 6 4 4 9 15 22 23 16 11 11 8 9 21 20 19 14 13 11 7 3 4 4 3 2 1 1 1 2 2 3
12 11 11 12 11 12 12 10 8 9 6 5 4 5 5 3 5 15 18 22 21 11 6 10 15 21 21 16 17 15 7 4 4 5 4 2 2 2 1 2 3 4 5
13 13 11 10 12 9 8 7 7 8 8 7 6 5 4 3 4 3 6 10 19 13 8 8 11 14 15 11 9 10 5 5 4 4 2 3 2 2 2 1 2 2 1
11 11 10 9 10 10 8 7 7 7 9 9 8 7 7 5 3 9 9 7 9 11 8 6 6 8 9 7 6 6 5 4 4 3 2 3 2 2 2 1 1 2 1
12 9 9 9 9 9 9 9 10 13 17 20 19 14 8 12 13 11 17 18 17 19 9 9 9 9 9 9 9 7 6 7 6 5 4 3 3 2 2 2 1 1 1
12 12 10 10 10 9 8 9 12 11 17 17 19 20 18 17 14 14 15 18 19 19 12 9 10 10 9 9 9 7 7 7 7 6 5 4 3 2 4 2 2 2 1
11 15 10 9 9 8 8 8 7 9 12 10 14 17 19 18 17 15 14 15 9 16 10 9 10 9 9 9 9 8 7 7 7 7 6 6 5 5 4 3 2 2 2
10 9 9 9 9 10 10 9 8 9 9 10 10 11 11 16 15 16 16 8 9 9 10 10 8 9 9 9 9 8 9 8 8 8 7 7 6 6 4 3 3 4 5
10 14 13 9 9 9 9 9 8 9 9 9 8 8 8 10 8 6 6 7 8 8 9 10 8 8 10 10 9 9 8 9 9 8 8 8 7 6 6 6 5 6 5
8 9 11 9 9 9 9 10 9 9 9 10 10 9 16 10 9 9 9 7 8 9 10 9 9 8 8 10 10 10 10 9 10 10 9 9 9 8 7 6 5 6 8
8 9 9 9 9 10 9 9 9 11 11 12 11 10 19 9 8 9 10 9 7 9 8 10 10 10 10 11 11 11 11 12 11 11 10 9 9 8 8 8 7 7 9
10 11 11 10 10 12 10 10 11 11 13 13 12 10 9 9 9 9 9 9 8 8 9 9 10 8 9 9 10 11 12 13 13 13 13 12 10 9 9 10 9 9 9
10 12 12 11 10 11 10 11 11 14 14 13 11 11 10 10 10 10 7 7 8 8 8 11 11 13 11 11 10 11 10 10 11 13 16 14 12 12 10 10 10 10 10
10 11 11 11 11 10 11 11 12 12 12 12 11 11 10 11 11 10 9 8 9 10 9 9 11 15 16 18 15 16 16 18 16 17 12 14 16 17 13 11 11 10 12
11 12 11 10 11 11 11 11 12 12 12 11 11 11 12 11 11 11 10 9 8 10 11 7 10 17 17 16 17 18 19 21 20 23 15 14 15 13 12 13 16 11 14
Wind_Direction
200 209 205 201 201 193 188 187 179 170 169 172 174 174 175 174 175 177 176 175 184 186 191 189 197 186 192 197 200 213 224 222 246 270 267 301 305 294 303 298 291 293 300
220 213 205 201 199 202 195 190 180 177 175 176 175 177 176 175 176 177 179 181 187 193 189 191 196 185 203 209 202 217 228 234 254 275 288 290 306 303 302 293 299 303 305
333 228 213 213 197 202 197 194 183 179 177 176 174 178 179 178 177 184 187 184 190 195 193 191 190 191 197 201 205 219 230 242 249 270 286 298 292 301 296 298 311 311 305
21 337 235 217 213 207 201 197 188 184 178 180 181 181 183 181 181 182 184 185 189 196 194 193 191 194 195 199 207 212 229 247 263 271 279 293 291 297 291 315 315 311 313
29 30 17 351 262 228 212 198 191 194 188 186 181 183 182 181 182 179 181 185 185 190 190 191 192 192 188 196 193 202 212 229 249 277 287 294 305 319 325 327 313 318 315
30 31 22 12 11 341 265 217 200 196 191 183 184 183 184 190 184 181 178 183 186 185 185 187 185 173 175 197 215 228 238 240 255 271 283 291 297 316 324 324 319 330 333
26 25 20 12 14 5 349 317 233 208 198 193 186 182 192 195 180 185 182 183 183 184 179 177 179 176 181 190 212 223 231 240 246 262 272 279 303 325 327 319 321 316 304
24 20 15 5 1 358 359 353 340 315 216 151 163 165 182 203 187 187 184 172 177 180 180 181 181 176 181 174 167 190 211 221 239 253 262 279 292 308 323 315 308 301 299
15 10 2 359 350 357 359 350 339 306 278 226 163 180 198 194 199 191 181 185 185 188 184 181 180 178 184 184 171 189 215 229 234 254 270 275 291 307 322 325 335 327 326
1 354 350 355 344 346 351 347 337 317 275 249 240 224 211 209 197 196 188 186 196 190 179 190 187 181 180 187 187 182 211 213 199 217 208 262 256 274 295 317 328 324 333
348 347 352 350 340 343 342 345 344 336 317 287 260 238 221 209 206 203 198 196 201 190 194 195 193 193 188 191 195 191 199 139 216 202 255 257 226 237 241 175 310 315 329
345 355 349 347 341 337 341 342 346 345 334 318 297 283 249 221 222 218 213 207 202 196 201 195 193 190 193 193 195 206 215 208 184 228 229 234 186 201 326 344 108 279 266
346 349 347 340 343 338 335 344 349 345 337 328 303 289 281 203 220 225 224 219 213 209 197 190 185 186 188 195 199 203 190 174 195 214 211 181 120 94 258 211 191 226 249
339 339 336 340 336 338 328 342 342 338 334 325 311 291 280 257 216 217 223 227 221 208 184 174 171 173 175 170 178 191 173 190 190 204 159 106 120 182 189 199 210 209 238
331 328 330 333 329 325 321 319 322 303 306 316 311 301 289 274 233 215 220 222 213 200 157 149 163 168 168 154 163 173 173 171 181 190 132 167 166 157 167 211 232 192 133
320 322 324 316 320 313 317 314 311 306 314 310 304 292 286 264 267 260 232 238 222 193 185 185 180 183 182 174 175 175 177 182 189 175 163 165 168 160 177 178 218 183 130
304 307 306 304 304 307 311 314 317 319 315 315 321 315 307 292 267 254 244 229 227 197 205 200 192 186 184 178 175 177 178 182 176 167 166 171 159 164 184 162 171 164 84
286 290 287 288 287 290 292 295 299 306 313 313 316 315 307 299 294 268 243 225 221 216 208 208 198 184 183 180 175 175 164 166 174 171 168 167 167 175 196 155 164 144 125
279 279 279 284 287 285 285 282 279 276 280 290 301 308 307 306 302 282 245 227 213 217 213 216 201 190 185 178 173 172 172 171 177 168 167 166 172 182 185 138 130 127 123
271 264 257 264 268 269 269 269 266 268 270 273 277 285 307 323 313 284 242 235 211 206 216 213 218 204 177 178 167 164 170 166 173 172 171 163 177 183 168 141 159 155 130
275 275 269 269 266 265 263 263 264 265 267 271 273 277 282 285 292 286 291 241 231 211 204 205 204 207 199 178 169 169 174 181 177 172 171 167 173 172 162 155 169 143 131
267 267 266 265 265 264 264 264 268 268 264 264 267 273 280 279 276 271 269 274 244 228 212 204 202 200 197 188 172 176 176 182 178 173 167 166 170 166 159 152 161 153 141
268 271 270 266 262 264 265 261 258 257 262 259 260 260 256 258 262 266 274 279 261 229 211 207 210 198 193 193 184 177 182 189 182 170 163 165 168 169 163 158 163 160 154
258 255 256 258 256 253 254 255 255 256 258 264 264 265 263 265 258 262 276 288 285 268 212 214 214 210 192 188 186 181 184 182 173 176 164 162 164 166 157 161 160 164 154
246 247 250 253 256 258 259 254 254 254 254 258 262 262 263 259 260 265 266 265 270 280 265 223 216 216 197 186 183 185 180 176 170 167 164 163 163 166 161 158 158 161 158
257 252 251 252 253 252 251 252 252 253 255 258 259 258 256 254 259 264 263 262 262 261 283 246 225 214 203 189 186 183 178 175 170 166 162 162 160 163 161 157 158 159 161